Location: Newark
(44.3681°N, 100.3364°W)
Time: 14:58:00
(UTC+00:00)

Vanguard 1 - Pass Details

Date: 28 February 2020
Orbit: 649 x 3833 km, 34.2° (Epoch: 09 April)

Event Time Altitude Azimuth Distance (km) Brightness Sun altitude
Rises 09:47:49 0° 184° (S) 7,160 14.2 -37.7°
Reaches altitude 10° 09:54:46 10° 169° (SSE) 6,553 14.1 -36.7°
Maximum altitude 10:08:08 20° 131° (SE) 6,106 14.2 -34.5°
Drops below altitude 10° 10:21:36 10° 95° (E) 6,729 15.0 -32.3°
Sets 10:28:40 0° 81° (E) 7,422 15.6 -31.2°
